Miscellaneous Local Product
Issued by NWS Hastings, NE

Home | Current Version | Previous Version | Graphics & Text | Print | Product List | Glossary On
Versions: 1 2 3 4 5 6 7 8 9 10 11 12 13 14 15 16 17 18 19 20 21 22 23 24 25 26 27 28 29 30 31 32 33 34 35 36 37 38 39 40 41 42 43 44 45 46 47 48 49 50
000
AXUS43 KGID 210502
MISGRI

GID CWA HOURLY WEATHER ROUNDUP
NATIONAL WEATHER SERVICE HASTINGS NE
1200 AM CDT THU AUG 21 2014

NOTE: "FAIR" INDICATES FEW OR NO CLOUDS BELOW 12,000 FEET WITH NO
SIGNIFICANT WEATHER AND/OR OBSTRUCTIONS TO VISIBILITY.

...SOUTH CENTRAL NEBRASKA...

CITY           SKY/WX    TMP DP  RH WIND       PRES   REMARKS
GRAND ISLAND   CLOUDY    80  69  69 S13       29.77R
HASTINGS       CLOUDY    80  65  59 S10       29.79R
KEARNEY        MOCLDY    75  68  78 S8        29.78F
ORD            LGT RAIN  79  72  79 S10       29.73F
YORK           CLOUDY    81 N/A N/A S13       29.77S
AURORA         CLOUDY    81  71  72 S12G18    29.77R
LEXINGTON      TSTM      73  66  80 SW22G33   29.88R
HOLDREGE       RAIN      74  62  66 SE9       29.80R
HEBRON         MOCLDY    80  65  59 S10       29.78S

...NEBRASKA PANHANDLE...

CITY           SKY/WX    TMP DP  RH WIND       PRES   REMARKS
CHADRON        CLEAR     65  51  60 W5        29.83R
ALLIANCE       PTCLDY    69  55  60 SW10      29.87R
SCOTTSBLUFF    MOCLDY    74  52  46 S9        29.91R
SIDNEY         LGT RAIN  65  59  81 NW13      29.95F

...WESTERN AND NORTH CENTRAL NEBRASKA...

CITY           SKY/WX    TMP DP  RH WIND       PRES   REMARKS
VALENTINE      PTCLDY    73  63  70 S10       29.74S
AINSWORTH      PTCLDY    75  70  85 S9        29.75R
ONEILL         PTCLDY    78  73  85 S9        29.74S
BROKEN BOW     MOCLDY    72  67  84 W3        29.78R
IMPERIAL       MOCLDY    70  65  84 CALM      29.83R
NORTH PLATTE   CLOUDY    71  65  81 E9        29.79F
MCCOOK         CLOUDY    76  61  59 NE9       29.80R

...EASTERN NEBRASKA...

CITY           SKY/WX    TMP DP  RH WIND       PRES   REMARKS
NORFOLK        CLEAR     80  69  69 SE13      29.74S
SO SIOUX CITY  PTCLDY    77  73  87 SE9       29.75F
TEKAMAH        PTCLDY    78  73  84 SE10      29.76S
COLUMBUS       MOCLDY    66  66 100 S12       29.76S
ALBION         CLOUDY    76  70  81 SE6       29.75S
OMAHA EPPLEY   CLEAR     80  72  76 SE13      29.78S
OFFUTT AFB     CLEAR     78  77  99 E8        29.79S
MILLARD        CLEAR     80  73  81 SE6       29.78S
LINCOLN        MOCLDY    82  69  64 S13       29.77S
NEBRASKA CITY  PTCLDY    78  72  80 S10       29.81S
BEATRICE       MOCLDY    82  70  68 S13       29.80R
FALLS CITY     PTCLDY    81  70  69 S10       29.82R

...NORTHERN KANSAS...

CITY           SKY/WX    TMP DP  RH WIND       PRES   REMARKS
GOODLAND       PTCLDY    70  60  70 E3        29.86S
HILL CITY      MOCLDY    87  61  41 S13G22    29.77R
NORTON         CLEAR     81  59  47 CALM      29.77S
PHILLIPSBURG   PTCLDY    84  63  48 E6        29.77F
SMITH CENTER   PTCLDY    81  63  54 SE10      29.79R
BELOIT         CLEAR     81  66  61 SE8       29.77R
HAYS           PTCLDY    84  61  45 S17G23    29.80R
RUSSELL        PTCLDY    84  62  47 S17G28    29.78R
CONCORDIA      CLEAR     81  67  62 S15       29.80R
SALINA         CLEAR     83  65  54 S17       29.81R
TOPEKA         PTCLDY    84  69  60 S13       29.86R



USA.gov is the U.S. government's official web portal to all federal, state and local government web resources and services.